Location: Brompton
(51.4000°N, 0.5333°E)
Time: 04:03:00
(UTC+00:00)

Cosmos 1536 - Pass Details

Date: 03 October 2021
Orbit: 539 x 558 km, 82.5° (Epoch: 19 October)

Event Time Altitude Azimuth Distance (km) Brightness Sun altitude
Rises 03:20:22 0° 346° (NNW) 2,711 6.5 -25.2°
Reaches altitude 10° 03:22:32 10° 343° (NNW) 1,814 5.6 -24.9°
Enters shadow 03:23:21 16° 341° (NNW) 1,491 5.1 -24.8°
